| time (UTC) | temp F | wind direction | speed MPH | gust MPH | rain 1hr in | rain 24hr in | rain mn in | humidity % | barometer mb |
| 20260508161527 | 67 | 187 | 2.0 | 9.0 | 0.00 | 0.00 | 0.00 | 51 | 1016.2 |
| 20260508160529 | 68 | 201 | 2.0 | 7.0 | 0.00 | 0.00 | 0.00 | 49 | 1016.2 |
| 20260508155523 | 68 | 123 | 2.0 | 9.0 | 0.00 | 0.00 | 0.00 | 49 | 1016.3 |
| 20260508155023 | 68 | 214 | 2.0 | 9.0 | 0.00 | 0.00 | 0.00 | 49 | 1016.2 |
| 20260508153520 | 66 | 148 | 4.0 | 9.0 | 0.00 | 0.00 | 0.00 | 48 | 1016.3 |
| 20260508151516 | 67 | 196 | 4.0 | 12.0 | 0.00 | 0.00 | 0.00 | 50 | 1016.5 |
| 20260508151017 | 67 | 163 | 4.0 | 9.0 | 0.00 | 0.00 | 0.00 | 52 | 1016.4 |
| 20260508150516 | 67 | 210 | 4.0 | 9.0 | 0.00 | 0.00 | 0.00 | 51 | 1016.5 |
| 20260508150013 | 67 | 164 | 4.0 | 9.0 | 0.00 | 0.00 | 0.00 | 51 | 1016.5 |
| 20260508145011 | 67 | 185 | 4.0 | 11.0 | 0.00 | 0.00 | 0.00 | 53 | 1016.5 |
| 20260508144514 | 66 | 193 | 2.0 | 11.0 | 0.00 | 0.00 | 0.00 | 53 | 1016.5 |
| 20260508144010 | 66 | 218 | 2.0 | 7.0 | 0.00 | 0.00 | 0.00 | 53 | 1016.6 |
| 20260508143507 | 66 | 120 | 2.0 | 5.0 | 0.00 | 0.00 | 0.00 | 51 | 1016.7 |
| 20260508143004 | 67 | 132 | 0.0 | 5.0 | 0.00 | 0.00 | 0.00 | 51 | 1016.7 |
| 20260508142503 | 67 | 132 | 2.0 | 5.0 | 0.00 | 0.00 | 0.00 | 49 | 1016.7 |
| 20260508142002 | 68 | 133 | 4.0 | 9.0 | 0.00 | 0.00 | 0.00 | 50 | 1016.6 |
| 20260508141501 | 67 | 141 | 4.0 | 12.0 | 0.00 | 0.00 | 0.00 | 50 | 1016.7 |
| 20260508140953 | 67 | 75 | 4.0 | 14.0 | 0.00 | 0.00 | 0.00 | 52 | 1016.7 |
| 20260508140445 | 67 | 194 | 2.0 | 14.0 | 0.00 | 0.00 | 0.00 | 52 | 1016.7 |
| 20260508134935 | 66 | 90 | 2.0 | 7.0 | 0.00 | 0.00 | 0.00 | 53 | 1016.9 |
| 20260508134435 | 66 | 158 | 2.0 | 7.0 | 0.00 | 0.00 | 0.00 | 52 | 1016.9 |
| 20260508133935 | 66 | 108 | 2.0 | 7.0 | 0.00 | 0.00 | 0.00 | 54 | 1017.0 |
| 20260508133434 | 65 | 95 | 2.0 | 7.0 | 0.00 | 0.00 | 0.00 | 54 | 1017.0 |
| 20260508132428 | 65 | 97 | 5.0 | 12.0 | 0.00 | 0.00 | 0.00 | 52 | 1017.0 |
| 20260508131422 | 65 | 157 | 4.0 | 12.0 | 0.00 | 0.00 | 0.00 | 54 | 1017.0 |
| 20260508130924 | 66 | 180 | 4.0 | 12.0 | 0.00 | 0.00 | 0.00 | 53 | 1017.1 |
| 20260508130421 | 66 | 66 | 4.0 | 12.0 | 0.00 | 0.00 | 0.00 | 52 | 1017.2 |
| 20260508125918 | 66 | 178 | 4.0 | 12.0 | 0.00 | 0.00 | 0.00 | 54 | 1017.0 |
| 20260508125418 | 66 | 210 | 5.0 | 12.0 | 0.00 | 0.00 | 0.00 | 52 | 1017.2 |
| 20260508124918 | 67 | 87 | 5.0 | 12.0 | 0.00 | 0.00 | 0.00 | 52 | 1017.3 |
| 20260508124414 | 66 | 116 | 5.0 | 12.0 | 0.00 | 0.00 | 0.00 | 53 | 1017.2 |
| 20260508123909 | 66 | 170 | 5.0 | 9.0 | 0.00 | 0.00 | 0.00 | 54 | 1017.3 |
| 20260508123410 | 65 | 105 | 4.0 | 9.0 | 0.00 | 0.00 | 0.00 | 56 | 1017.2 |
| 20260508122911 | 65 | 149 | 4.0 | 7.0 | 0.00 | 0.00 | 0.00 | 55 | 1017.4 |
| 20260508122408 | 65 | 183 | 4.0 | 7.0 | 0.00 | 0.00 | 0.00 | 56 | 1017.4 |
| 20260508121910 | 65 | 211 | 4.0 | 9.0 | 0.00 | 0.00 | 0.00 | 55 | 1017.3 |
| 20260508121409 | 65 | 92 | 5.0 | 14.0 | 0.00 | 0.00 | 0.00 | 54 | 1017.3 |
| 20260508120912 | 65 | 80 | 5.0 | 14.0 | 0.00 | 0.00 | 0.00 | 55 | 1017.4 |
| 20260508120408 | 66 | 194 | 4.0 | 11.0 | 0.00 | 0.00 | 0.00 | 52 | 1017.3 |
| 20260508115908 | 66 | 184 | 4.0 | 11.0 | 0.00 | 0.00 | 0.00 | 53 | 1017.2 |
| 20260508115404 | 66 | 205 | 5.0 | 11.0 | 0.00 | 0.00 | 0.00 | 55 | 1017.2 |
| 20260508114902 | 65 | 226 | 4.0 | 11.0 | 0.00 | 0.00 | 0.00 | 56 | 1017.2 |
| 20260508114405 | 65 | 149 | 4.0 | 9.0 | 0.00 | 0.00 | 0.00 | 56 | 1017.3 |
| 20260508113903 | 64 | 58 | 4.0 | 11.0 | 0.00 | 0.00 | 0.00 | 57 | 1017.3 |
| 20260508113400 | 65 | 147 | 4.0 | 11.0 | 0.00 | 0.00 | 0.00 | 56 | 1017.3 |
| 20260508112902 | 65 | 157 | 4.0 | 14.0 | 0.00 | 0.00 | 0.00 | 57 | 1017.3 |
| 20260508112403 | 65 | 62 | 4.0 | 14.0 | 0.00 | 0.00 | 0.00 | 58 | 1017.4 |
| 20260508111356 | 65 | 138 | 5.0 | 12.0 | 0.00 | 0.00 | 0.00 | 58 | 1017.5 |
| 20260508110856 | 65 | 148 | 5.0 | 12.0 | 0.00 | 0.00 | 0.00 | 57 | 1017.4 |
| 20260508110354 | 64 | 94 | 5.0 | 11.0 | 0.00 | 0.00 | 0.00 | 59 | 1017.5 |
| 20260508105858 | 64 | 112 | 4.0 | 11.0 | 0.00 | 0.00 | 0.00 | 58 | 1017.5 |
| 20260508105354 | 64 | 98 | 4.0 | 11.0 | 0.00 | 0.00 | 0.00 | 58 | 1017.5 |
| 20260508104856 | 63 | 97 | 4.0 | 11.0 | 0.00 | 0.00 | 0.00 | 60 | 1017.5 |
| 20260508104354 | 64 | 164 | 4.0 | 14.0 | 0.00 | 0.00 | 0.00 | 61 | 1017.6 |
| 20260508103853 | 64 | 156 | 4.0 | 14.0 | 0.00 | 0.00 | 0.00 | 62 | 1017.6 |
| 20260508103358 | 64 | 164 | 4.0 | 7.0 | 0.00 | 0.00 | 0.00 | 64 | 1017.6 |
| 20260508102852 | 64 | 135 | 4.0 | 12.0 | 0.00 | 0.00 | 0.00 | 63 | 1017.7 |
| 20260508102352 | 64 | 139 | 2.0 | 12.0 | 0.00 | 0.00 | 0.00 | 61 | 1017.6 |
| 20260508101852 | 63 | 125 | 4.0 | 11.0 | 0.00 | 0.00 | 0.00 | 65 | 1017.7 |
| 20260508101352 | 63 | 126 | 4.0 | 9.0 | 0.00 | 0.00 | 0.00 | 63 | 1017.8 |
| 20260508100848 | 63 | 152 | 2.0 | 7.0 | 0.00 | 0.00 | 0.00 | 64 | 1017.7 |
| 20260508100351 | 63 | 145 | 2.0 | 9.0 | 0.00 | 0.00 | 0.00 | 67 | 1017.7 |
| 20260508095848 | 62 | 156 | 2.0 | 9.0 | 0.00 | 0.00 | 0.00 | 67 | 1017.7 |
| 20260508095338 | 62 | 153 | 4.0 | 7.0 | 0.00 | 0.00 | 0.00 | 68 | 1017.8 |
| 20260508094331 | 61 | 120 | 2.0 | 12.0 | 0.00 | 0.00 | 0.00 | 68 | 1017.7 |
| 20260508093831 | 61 | 106 | 2.0 | 7.0 | 0.00 | 0.00 | 0.00 | 70 | 1017.8 |
| 20260508093331 | 61 | 129 | 2.0 | 9.0 | 0.00 | 0.00 | 0.00 | 73 | 1017.8 |
| 20260508091830 | 60 | 161 | 2.0 | 5.0 | 0.00 | 0.00 | 0.00 | 77 | 1017.8 |
| 20260508091333 | 60 | 164 | 0.0 | 5.0 | 0.00 | 0.00 | 0.00 | 78 | 1017.9 |
| 20260508090328 | 59 | 166 | 2.0 | 7.0 | 0.00 | 0.00 | 0.00 | 79 | 1017.8 |
| 20260508085326 | 59 | 172 | 0.0 | 4.0 | 0.00 | 0.00 | 0.00 | 80 | 1017.8 |
| 20260508084821 | 58 | 172 | 2.0 | 5.0 | 0.00 | 0.00 | 0.00 | 80 | 1017.9 |
| 20260508084320 | 58 | 174 | 2.0 | 5.0 | 0.00 | 0.00 | 0.00 | 81 | 1017.9 |
| 20260508083816 | 58 | 171 | 0.0 | 5.0 | 0.00 | 0.00 | 0.00 | 81 | 1017.9 |
| 20260508083315 | 57 | 170 | 2.0 | 5.0 | 0.00 | 0.00 | 0.00 | 82 | 1017.9 |
| 20260508082813 | 57 | 170 | 2.0 | 5.0 | 0.00 | 0.00 | 0.00 | 82 | 1017.8 |
| 20260508082308 | 57 | 170 | 2.0 | 5.0 | 0.00 | 0.00 | 0.00 | 83 | 1017.8 |
| 20260508081809 | 56 | 172 | 0.0 | 4.0 | 0.00 | 0.00 | 0.00 | 84 | 1017.8 |
| 20260508081309 | 56 | 172 | 0.0 | 5.0 | 0.00 | 0.00 | 0.00 | 84 | 1017.9 |
| 20260508080812 | 56 | 172 | 2.0 | 5.0 | 0.00 | 0.00 | 0.00 | 85 | 1017.8 |
| 20260508080314 | 56 | 172 | 2.0 | 5.0 | 0.00 | 0.00 | 0.00 | 86 | 1017.7 |
| 20260508075308 | 55 | 172 | 2.0 | 5.0 | 0.00 | 0.00 | 0.00 | 87 | 1017.8 |
| 20260508074303 | 54 | 183 | 2.0 | 4.0 | 0.00 | 0.00 | 0.00 | 88 | 1017.7 |
| 20260508073303 | 54 | 183 | 0.0 | 4.0 | 0.00 | 0.00 | 0.00 | 89 | 1017.7 |
| 20260508071802 | 53 | 185 | 0.0 | 4.0 | 0.00 | 0.00 | 0.00 | 89 | 1017.6 |
| 20260508071303 | 53 | 185 | 0.0 | 4.0 | 0.00 | 0.00 | 0.00 | 90 | 1017.5 |
| 20260508070802 | 53 | 185 | 2.0 | 4.0 | 0.00 | 0.00 | 0.00 | 90 | 1017.5 |
| 20260508070304 | 53 | 185 | 0.0 | 4.0 | 0.00 | 0.00 | 0.00 | 90 | 1017.5 |
| 20260508065306 | 53 | 186 | 0.0 | 0.0 | 0.00 | 0.00 | 0.00 | 91 | 1017.4 |
| 20260508064804 | 52 | 186 | 0.0 | 0.0 | 0.00 | 0.00 | 0.00 | 91 | 1017.3 |
| 20260508064303 | 52 | 186 | 0.0 | 0.0 | 0.00 | 0.00 | 0.00 | 91 | 1017.3 |
| 20260508063802 | 52 | 186 | 0.0 | 0.0 | 0.00 | 0.00 | 0.00 | 91 | 1017.2 |
| 20260508063302 | 52 | 186 | 0.0 | 2.0 | 0.00 | 0.00 | 0.00 | 91 | 1017.3 |
| 20260508062819 | 52 | 186 | 0.0 | 2.0 | 0.00 | 0.00 | 0.00 | 91 | 1017.3 |
| 20260508062306 | 51 | 186 | 0.0 | 0.0 | 0.00 | 0.00 | 0.00 | 92 | 1017.2 |
| 20260508061304 | 51 | 187 | 0.0 | 0.0 | 0.00 | 0.00 | 0.00 | 92 | 1017.1 |
| 20260508060800 | 51 | 187 | 0.0 | 0.0 | 0.00 | 0.00 | 0.00 | 92 | 1017.1 |
| 20260508055743 | 51 | 187 | 0.0 | 0.0 | 0.00 | 0.00 | 0.00 | 92 | 1017.0 |
| 20260508055236 | 51 | 187 | 0.0 | 0.0 | 0.00 | 0.00 | 0.00 | 92 | 1017.0 |
| 20260508054735 | 51 | 187 | 0.0 | 0.0 | 0.00 | 0.00 | 0.00 | 92 | 1017.0 |
| 20260508054232 | 51 | 187 | 0.0 | 0.0 | 0.00 | 0.00 | 0.00 | 92 | 1017.0 |
| 20260508053232 | 51 | 187 | 0.0 | 0.0 | 0.00 | 0.00 | 0.00 | 92 | 1017.0 |
| 20260508052736 | 51 | 187 | 0.0 | 0.0 | 0.00 | 0.00 | 0.00 | 92 | 1016.9 |
| 20260508051729 | 51 | 187 | 0.0 | 0.0 | 0.00 | 0.00 | 0.00 | 92 | 1016.8 |
| 20260508051231 | 51 | 187 | 0.0 | 0.0 | 0.00 | 0.00 | 0.00 | 92 | 1016.7 |
| 20260508050732 | 51 | 187 | 0.0 | 0.0 | 0.00 | 0.00 | 0.00 | 92 | 1016.7 |
| 20260508045733 | 51 | 187 | 0.0 | 0.0 | 0.00 | 0.00 | 0.00 | 91 | 1016.7 |
| 20260508045232 | 51 | 187 | 0.0 | 0.0 | 0.00 | 0.00 | 0.00 | 91 | 1016.6 |
| 20260508044729 | 51 | 187 | 0.0 | 0.0 | 0.00 | 0.00 | 0.00 | 92 | 1016.6 |
| 20260508044232 | 51 | 187 | 0.0 | 0.0 | 0.00 | 0.00 | 0.00 | 92 | 1016.6 |
| 20260508043730 | 51 | 187 | 0.0 | 0.0 | 0.00 | 0.00 | 0.00 | 92 | 1016.6 |
| 20260508043228 | 51 | 187 | 0.0 | 0.0 | 0.00 | 0.00 | 0.00 | 91 | 1016.6 |
| 20260508042723 | 51 | 187 | 0.0 | 0.0 | 0.00 | 0.00 | 0.00 | 92 | 1016.5 |
| 20260508042218 | 51 | 187 | 0.0 | 0.0 | 0.00 | 0.00 | 0.00 | 92 | 1016.6 |
| 20260508041713 | 51 | 187 | 0.0 | 0.0 | 0.00 | 0.00 | 0.00 | 91 | 1016.5 |
| 20260508041207 | 51 | 187 | 0.0 | 0.0 | 0.00 | 0.00 | 0.00 | 92 | 1016.5 |
| 20260508040705 | 51 | 187 | 0.0 | 0.0 | 0.00 | 0.00 | 0.00 | 91 | 1016.6 |
| 20260508040205 | 51 | 187 | 0.0 | 0.0 | 0.00 | 0.00 | 0.00 | 91 | 1016.6 |
| 20260508035704 | 51 | 187 | 0.0 | 0.0 | 0.00 | 0.00 | 0.00 | 91 | 1016.5 |
| 20260508034701 | 51 | 187 | 0.0 | 0.0 | 0.00 | 0.00 | 0.00 | 91 | 1016.6 |
| 20260508034203 | 51 | 187 | 0.0 | 0.0 | 0.00 | 0.00 | 0.00 | 91 | 1016.6 |
| 20260508033706 | 51 | 187 | 0.0 | 0.0 | 0.00 | 0.00 | 0.00 | 91 | 1016.6 |
| 20260508032703 | 51 | 187 | 0.0 | 0.0 | 0.00 | 0.00 | 0.00 | 91 | 1016.6 |
| 20260508032205 | 51 | 187 | 0.0 | 0.0 | 0.00 | 0.00 | 0.00 | 91 | 1016.5 |
| 20260508030704 | 51 | 187 | 0.0 | 0.0 | 0.00 | 0.00 | 0.00 | 92 | 1016.4 |
| 20260508030204 | 51 | 187 | 0.0 | 0.0 | 0.00 | 0.00 | 0.00 | 92 | 1016.4 |
| 20260508025704 | 51 | 187 | 0.0 | 0.0 | 0.00 | 0.00 | 0.00 | 92 | 1016.5 |
| 20260508025207 | 51 | 187 | 0.0 | 0.0 | 0.00 | 0.00 | 0.00 | 92 | 1016.6 |
| 20260508024203 | 51 | 187 | 0.0 | 0.0 | 0.00 | 0.00 | 0.00 | 92 | 1016.6 |
| 20260508023201 | 51 | 187 | 0.0 | 0.0 | 0.00 | 0.00 | 0.00 | 92 | 1016.5 |
| 20260508022703 | 51 | 187 | 0.0 | 0.0 | 0.00 | 0.00 | 0.00 | 91 | 1016.5 |
| 20260508022202 | 51 | 187 | 0.0 | 0.0 | 0.00 | 0.00 | 0.00 | 91 | 1016.6 |
| 20260508021704 | 51 | 187 | 0.0 | 0.0 | 0.00 | 0.00 | 0.00 | 91 | 1016.5 |
| 20260508021203 | 51 | 187 | 0.0 | 0.0 | 0.00 | 0.00 | 0.00 | 91 | 1016.5 |
| 20260508020702 | 51 | 187 | 0.0 | 0.0 | 0.00 | 0.00 | 0.00 | 91 | 1016.5 |
| 20260508020202 | 51 | 187 | 0.0 | 0.0 | 0.00 | 0.00 | 0.00 | 91 | 1016.6 |
| 20260508015148 | 51 | 187 | 0.0 | 0.0 | 0.00 | 0.00 | 0.00 | 91 | 1016.6 |
| 20260508014647 | 51 | 187 | 0.0 | 0.0 | 0.00 | 0.00 | 0.00 | 91 | 1016.5 |
| 20260508014132 | 51 | 187 | 0.0 | 0.0 | 0.00 | 0.00 | 0.00 | 91 | 1016.5 |
| 20260508013134 | 51 | 187 | 0.0 | 0.0 | 0.00 | 0.00 | 0.00 | 90 | 1016.5 |
| 20260508012625 | 52 | 187 | 0.0 | 0.0 | 0.00 | 0.00 | 0.00 | 90 | 1016.5 |
| 20260508011606 | 52 | 187 | 0.0 | 0.0 | 0.00 | 0.00 | 0.00 | 90 | 1016.5 |
| 20260508011104 | 52 | 187 | 0.0 | 0.0 | 0.00 | 0.00 | 0.00 | 90 | 1016.6 |
| 20260508010601 | 52 | 187 | 0.0 | 0.0 | 0.00 | 0.00 | 0.00 | 90 | 1016.6 |
| 20260508010106 | 52 | 187 | 0.0 | 0.0 | 0.00 | 0.00 | 0.00 | 90 | 1016.6 |
| 20260508005601 | 52 | 187 | 0.0 | 0.0 | 0.00 | 0.00 | 0.00 | 90 | 1016.7 |
| 20260508005052 | 52 | 187 | 0.0 | 0.0 | 0.00 | 0.00 | 0.00 | 90 | 1016.6 |
| 20260508004550 | 52 | 187 | 0.0 | 0.0 | 0.00 | 0.00 | 0.00 | 89 | 1016.6 |
| 20260508004035 | 52 | 187 | 0.0 | 0.0 | 0.00 | 0.00 | 0.00 | 89 | 1016.6 |
| 20260508003535 | 52 | 187 | 0.0 | 0.0 | 0.00 | 0.00 | 0.00 | 89 | 1016.6 |
| 20260508003025 | 52 | 187 | 0.0 | 0.0 | 0.00 | 0.00 | 0.00 | 89 | 1016.6 |
| 20260508002526 | 52 | 187 | 0.0 | 0.0 | 0.00 | 0.00 | 0.00 | 89 | 1016.6 |
| 20260508001004 | 52 | 187 | 0.0 | 0.0 | 0.00 | 0.00 | 0.00 | 88 | 1016.7 |
| 20260508000503 | 52 | 187 | 0.0 | 0.0 | 0.00 | 0.00 | 0.00 | 89 | 1016.8 |
| 20260508000001 | 53 | 187 | 0.0 | 0.0 | 0.00 | 0.00 | 0.00 | 88 | 1016.8 |
| 20260507235504 | 53 | 187 | 0.0 | 0.0 | 0.00 | 0.00 | 0.00 | 88 | 1016.7 |
| 20260507235004 | 53 | 187 | 0.0 | 0.0 | 0.00 | 0.00 | 0.00 | 88 | 1016.8 |
| 20260507234503 | 53 | 187 | 0.0 | 0.0 | 0.00 | 0.00 | 0.00 | 88 | 1016.8 |
| 20260507234000 | 53 | 187 | 0.0 | 0.0 | 0.00 | 0.00 | 0.00 | 88 | 1016.9 |
| 20260507233501 | 53 | 187 | 0.0 | 0.0 | 0.00 | 0.00 | 0.00 | 88 | 1016.9 |
| 20260507233002 | 53 | 187 | 0.0 | 0.0 | 0.00 | 0.00 | 0.00 | 88 | 1016.9 |
| 20260507232005 | 53 | 187 | 0.0 | 0.0 | 0.00 | 0.00 | 0.00 | 87 | 1017.0 |
| 20260507231505 | 53 | 187 | 0.0 | 0.0 | 0.00 | 0.00 | 0.00 | 87 | 1016.9 |
| 20260507230502 | 53 | 187 | 0.0 | 0.0 | 0.00 | 0.00 | 0.00 | 86 | 1016.9 |
| 20260507225954 | 53 | 187 | 0.0 | 0.0 | 0.00 | 0.00 | 0.00 | 86 | 1016.9 |
| 20260507224937 | 53 | 187 | 0.0 | 0.0 | 0.00 | 0.00 | 0.00 | 86 | 1017.0 |
| 20260507224431 | 54 | 187 | 0.0 | 0.0 | 0.00 | 0.00 | 0.00 | 85 | 1017.0 |
| 20260507223933 | 54 | 187 | 0.0 | 0.0 | 0.00 | 0.00 | 0.00 | 85 | 1016.9 |
| 20260507223433 | 54 | 187 | 0.0 | 0.0 | 0.00 | 0.00 | 0.00 | 85 | 1017.0 |
| 20260507222928 | 54 | 187 | 0.0 | 0.0 | 0.00 | 0.00 | 0.00 | 84 | 1017.0 |
| 20260507222431 | 54 | 187 | 0.0 | 0.0 | 0.00 | 0.00 | 0.00 | 84 | 1017.0 |
| 20260507221929 | 54 | 187 | 0.0 | 0.0 | 0.00 | 0.00 | 0.00 | 84 | 1017.0 |
| 20260507221431 | 54 | 187 | 0.0 | 0.0 | 0.00 | 0.00 | 0.00 | 84 | 1016.9 |
| 20260507220429 | 54 | 187 | 0.0 | 0.0 | 0.00 | 0.00 | 0.00 | 84 | 1016.9 |
| 20260507215930 | 54 | 187 | 0.0 | 0.0 | 0.00 | 0.00 | 0.00 | 83 | 1016.8 |
| 20260507215431 | 54 | 187 | 0.0 | 0.0 | 0.00 | 0.00 | 0.00 | 83 | 1016.9 |
| 20260507214927 | 55 | 187 | 0.0 | 0.0 | 0.00 | 0.00 | 0.00 | 83 | 1016.8 |
| 20260507214417 | 54 | 187 | 0.0 | 0.0 | 0.00 | 0.00 | 0.00 | 82 | 1016.8 |
| 20260507213910 | 54 | 187 | 0.0 | 0.0 | 0.00 | 0.00 | 0.00 | 81 | 1016.8 |
| 20260507213410 | 54 | 187 | 0.0 | 0.0 | 0.00 | 0.00 | 0.00 | 81 | 1016.8 |
| 20260507212907 | 54 | 187 | 0.0 | 0.0 | 0.00 | 0.00 | 0.00 | 81 | 1016.7 |
| 20260507212402 | 55 | 187 | 0.0 | 0.0 | 0.00 | 0.00 | 0.00 | 81 | 1016.8 |
| 20260507211904 | 55 | 187 | 0.0 | 0.0 | 0.00 | 0.00 | 0.00 | 81 | 1016.9 |
| 20260507210850 | 55 | 187 | 0.0 | 0.0 | 0.00 | 0.00 | 0.00 | 80 | 1016.8 |
| 20260507210342 | 55 | 187 | 0.0 | 0.0 | 0.00 | 0.00 | 0.00 | 80 | 1016.8 |
| 20260507205836 | 55 | 187 | 0.0 | 0.0 | 0.00 | 0.00 | 0.00 | 79 | 1016.8 |
| 20260507205336 | 55 | 187 | 0.0 | 0.0 | 0.00 | 0.00 | 0.00 | 79 | 1016.7 |
| 20260507204836 | 55 | 187 | 0.0 | 0.0 | 0.00 | 0.00 | 0.00 | 78 | 1016.8 |
| 20260507204337 | 55 | 187 | 0.0 | 0.0 | 0.00 | 0.00 | 0.00 | 77 | 1016.7 |
| 20260507203333 | 55 | 187 | 0.0 | 0.0 | 0.00 | 0.00 | 0.00 | 75 | 1016.7 |
| 20260507202831 | 55 | 187 | 0.0 | 0.0 | 0.00 | 0.00 | 0.00 | 75 | 1016.8 |
| 20260507202328 | 56 | 187 | 0.0 | 0.0 | 0.00 | 0.00 | 0.00 | 75 | 1016.7 |
| 20260507201820 | 56 | 187 | 0.0 | 0.0 | 0.00 | 0.00 | 0.00 | 75 | 1016.7 |
| 20260507201316 | 56 | 187 | 0.0 | 0.0 | 0.00 | 0.00 | 0.00 | 74 | 1016.6 |
| 20260507200304 | 56 | 187 | 0.0 | 0.0 | 0.00 | 0.00 | 0.00 | 73 | 1016.5 |
| 20260507195305 | 56 | 187 | 0.0 | 0.0 | 0.00 | 0.00 | 0.00 | 73 | 1016.4 |
| 20260507194806 | 56 | 187 | 0.0 | 0.0 | 0.00 | 0.00 | 0.00 | 72 | 1016.4 |
| 20260507194251 | 56 | 187 | 0.0 | 0.0 | 0.00 | 0.00 | 0.00 | 72 | 1016.3 |
| 20260507193752 | 56 | 187 | 0.0 | 0.0 | 0.00 | 0.00 | 0.00 | 72 | 1016.4 |
| 20260507192731 | 57 | 187 | 0.0 | 0.0 | 0.00 | 0.00 | 0.00 | 71 | 1016.4 |
| 20260507191232 | 57 | 187 | 0.0 | 0.0 | 0.00 | 0.00 | 0.00 | 70 | 1016.3 |
| 20260507190732 | 57 | 187 | 0.0 | 0.0 | 0.00 | 0.00 | 0.00 | 70 | 1016.2 |
| 20260507190233 | 58 | 187 | 0.0 | 0.0 | 0.00 | 0.00 | 0.00 | 70 | 1016.2 |
| 20260507185213 | 58 | 187 | 0.0 | 0.0 | 0.00 | 0.00 | 0.00 | 69 | 1016.2 |
| 20260507184712 | 58 | 187 | 0.0 | 0.0 | 0.00 | 0.00 | 0.00 | 69 | 1016.2 |
| 20260507184208 | 58 | 187 | 0.0 | 0.0 | 0.00 | 0.00 | 0.00 | 68 | 1016.2 |
| 20260507183705 | 58 | 187 | 0.0 | 2.0 | 0.00 | 0.00 | 0.00 | 67 | 1016.2 |
| 20260507183208 | 58 | 187 | 0.0 | 2.0 | 0.00 | 0.01 | 0.00 | 67 | 1016.1 |
| 20260507182707 | 58 | 187 | 0.0 | 4.0 | 0.00 | 0.01 | 0.00 | 67 | 1016.2 |
| 20260507182204 | 59 | 187 | 0.0 | 4.0 | 0.00 | 0.01 | 0.00 | 66 | 1016.2 |
| 20260507181706 | 59 | 187 | 0.0 | 4.0 | 0.00 | 0.01 | 0.00 | 65 | 1016.1 |
| 20260507181146 | 59 | 187 | 0.0 | 4.0 | 0.00 | 0.01 | 0.00 | 64 | 1016.1 |
| 20260507180646 | 59 | 187 | 0.0 | 4.0 | 0.00 | 0.01 | 0.00 | 64 | 1016.1 |
| 20260507175133 | 59 | 187 | 0.0 | 2.0 | 0.00 | 0.01 | 0.00 | 64 | 1016.1 |
| 20260507174632 | 59 | 189 | 0.0 | 0.0 | 0.00 | 0.01 | 0.00 | 65 | 1016.0 |
| 20260507174133 | 59 | 117 | 0.0 | 0.0 | 0.00 | 0.01 | 0.00 | 65 | 1016.0 |
| 20260507173632 | 59 | 117 | 0.0 | 0.0 | 0.00 | 0.01 | 0.00 | 63 | 1016.0 |
| 20260507172634 | 60 | 118 | 0.0 | 0.0 | 0.00 | 0.01 | 0.00 | 64 | 1016.0 |
| 20260507172134 | 60 | 117 | 0.0 | 0.0 | 0.00 | 0.01 | 0.00 | 63 | 1016.0 |
| 20260507171133 | 60 | 116 | 0.0 | 5.0 | 0.00 | 0.01 | 0.00 | 63 | 1015.9 |
| 20260507170634 | 60 | 116 | 0.0 | 5.0 | 0.00 | 0.01 | 0.00 | 63 | 1015.9 |
| 20260507170127 | 60 | 116 | 0.0 | 5.0 | 0.00 | 0.01 | 0.00 | 63 | 1016.0 |
| 20260507165613 | 60 | 113 | 0.0 | 5.0 | 0.00 | 0.01 | 0.00 | 63 | 1015.9 |
| 20260507165113 | 60 | 113 | 0.0 | 5.0 | 0.00 | 0.01 | 0.00 | 62 | 1015.9 |
| 20260507164606 | 60 | 122 | 0.0 | 5.0 | 0.00 | 0.01 | 0.00 | 62 | 1015.9 |
| 20260507163605 | 60 | 123 | 2.0 | 4.0 | 0.00 | 0.01 | 0.00 | 61 | 1015.9 |
| 20260507163104 | 60 | 116 | 2.0 | 4.0 | 0.00 | 0.01 | 0.00 | 61 | 1015.9 |
| 20260507162605 | 60 | 117 | 2.0 | 5.0 | 0.00 | 0.01 | 0.00 | 62 | 1016.0 |
| 20260507162101 | 60 | 116 | 2.0 | 5.0 | 0.00 | 0.01 | 0.00 | 61 | 1015.9 |